THOR ABLESTAR DEB, 3744

Orbit data source: Space-Track

THOR ABLESTAR DEB, 3744 is space debris in LEO originally from a launch on Thu, 29 Jun 1961 UTC launched from the Air Force Eastern Test Range (AFETR). Debris objects in space refer to the collection of defunct objects orbiting the Earth. Examples of debris include non-operational satellites, rocket bodies, and fragments generated from explosions, collisions, or faulty payload assembly.

Loading next visibility...
Identifier
3744, 1961-015JC
Orbit
LEO
Country
Flag of USUS
Related business
Manufacturer
Unknown
Mission
Spacecraft
Bus & Motor
Unknown
Mass
Unknown
Launch date (UTC)
1961-06-29 (65 years ago)
Launch vehicle
Unknown
Launch site
Air Force Eastern Test Range (AFETR)
Object type
Payload
Rocket body
Debris
Shape & HBR
Unknown shape, 0.1 m
Radar Cross Section
Medium (>0.1 m² and <1 m²)

Expand to show TLE details & history
Last TLE update: 11 hours ago

TLE from 11 hours ago
0 THOR ABLESTAR DEB
1 03744U 61015JC  26256.40890684  .00001856  00000-0  11956-2 0  9995
2 03744  66.9736 255.3396 0115783  40.2389 320.7195 14.01919273892891
Epoch: 2026-09-13T09:48Z
TLE epoch observation values (Epoch: 2026-09-13T09:48:49.550Z)
Latitude
-0.00008°
Longitude
115.72913°
Altitude
824.532 km
Speed
7.474 km/s
True Right ascension
17h 01m 21s
True Declination
0° 00' 00"
Sunlit
Object was in daylight at epoch
Visualization orbit readout
Latitude
Unknown
Longitude
Unknown
Altitude
Unknown
Speed
Unknown
Apparent Right ascension
Unknown
Apparent Declination
Unknown
Sunlit
N/A
Visualization observer readout
Local Sidereal Time
13:34:38
Azimuth
Unknown
Elevation
Unknown
Doppler factor
Unknown
Orbital elements
Apogee altitude
969.622 km
Perigee altitude
801.42 km
Semi-major axis
7,263.658 km
Eccentricity
0.01158
Inclination
66.9736°
RAAN
255.3396°
Arg. of periapsis
40.2389°
True anomaly
319.87001°
Mean anomaly
320.7195°
Eccentric anomaly
320.29571°
Mean motion
3.50599 °/min
Orbital period
102.68 mins
BSTAR
0.0011956
Loading maneuver chart data...
Computing Atmospheric mass density...
Loading historical data...
Loading historical data...
Loading historical data...
Loading historical data...
Loading historical data...
Loading historical data...
Loading historical data...

Documentation

Showing up to 5 results
|